Home   Weather   Bayreuth   Past weeks

Flag for Germany Past Weather in Bayreuth, Bavaria, Germany — Yesterday and Last 2 Weeks

Now
18 °F

Overcast.


Feels Like: 18 °F
Forecast: 19 / 29 °F
Wind: No wind

Location: Grafenwoehr

Current Time: Jan 24, 2017 at 4:45:32 pm

Latest Report: Jan 24, 2017 at 3:58 pm


Visibility: 6 mi

Pressure: 30.46 "Hg

Humidity: 86%

Dew Point: 14 °F

Location of BayreuthLocation

Past Weather in Bayreuth — Graph

°F

Bayreuth Temperature Yesterday

Maximum temperature yesterday: 27 °F (at 1:58 pm)
Minimum temperature yesterday: 1 °F (at 5:58 am)
Average temperature yesterday: 11 °F

High & Low Weather Summary for the Past Weeks

 TemperatureHumidityPressure
High39 °F (Jan 12, 1:20 pm)100% (Jan 12, 10:33 pm)30.71 "Hg (Jan 12, 10:33 pm)
Low0 °F (Jan 19, 4:58 am)30% (Jan 20, 2:58 pm)29.25 "Hg (Jan 13, 4:39 am)
Average24 °F81%30.11 "Hg
* Reported Jan 9 2:23 pm — Jan 24 2:58 pm, Bayreuth, Weather by CustomWeather, © 2017

Note: Actual official high and low records may vary slightly from our data, if they occured in-between our weather recording intervals... More about our weather records

Advertising

Bayreuth Weather History for the Previous 24 Hours

Scroll right to see more
 ConditionsComfort  
Time TempWeatherWind HumidityBarometerVisibility
2:58 pm
Tue, Jan 24
18 °FOvercast.No wind79%30.45 "Hg5 mi
1:58 pm18 °FOvercast.No wind79%30.44 "Hg5 mi
1:07 pm16 °FIce fog.No wind86%30.29 "Hg4 mi
12:58 pm16 °FLight snow. Ice fog.3 mph93%30.45 "Hg2 mi
12:25 pm14 °FIce fog.No wind92%30.29 "Hg3 mi
11:58 am14 °FIce fog.No wind85%30.45 "Hg2 mi
11:22 am12 °FIce fog.No wind85%30.30 "Hg2 mi
10:37 am10 °FIce fog.No wind92%30.30 "Hg1 mi
10:07 am10 °FIce fog.No wind92%30.29 "Hg1 mi
9:17 am10 °FLight snow. Ice fog.No wind85%30.28 "Hg2 mi
9:04 am10 °FLight snow. Ice fog.No wind85%30.28 "Hg2 mi
8:20 am10 °FIce fog.No wind85%30.27 "Hg2 mi
7:38 am9 °FIce fog.No wind92%30.25 "Hg3 mi
6:58 am9 °FIce fog.No wind85%30.38 "Hg3 mi
6:38 am7 °FIce fog.No wind85%30.23 "Hg2 mi
6:36 am7 °FIce fog.No wind85%30.23 "Hg2 mi
6:17 am7 °FIce fog.No wind85%30.22 "Hg1 mi
5:58 am7 °FFrigid.No wind85%30.36 "HgN/A
5:32 am7 °FIce fog.No wind85%30.22 "Hg0 mi
5:17 am5 °FFrigid.No wind85%30.22 "HgN/A
5:03 am5 °FIce fog.No wind85%30.22 "Hg0 mi
4:58 am5 °FIce fog.No wind85%30.36 "Hg1 mi
4:38 am5 °FIce fog.No wind92%30.21 "Hg1 mi
4:17 am5 °FIce fog.No wind85%30.21 "Hg2 mi
3:58 am3 °FLow clouds.No wind85%30.34 "Hg4 mi
2:58 am1 °FLow clouds.No wind85%30.34 "Hg5 mi
1:58 am1 °FPassing clouds.No wind85%30.34 "Hg6 mi
12:58 am3 °FClear.No wind78%30.34 "Hg6 mi
11:58 pm
Mon, Jan 23
3 °FClear.No wind85%30.35 "Hg6 mi
10:58 pm5 °FIce fog.No wind85%30.36 "Hg6 mi
9:58 pm7 °FIce fog.No wind85%30.36 "Hg5 mi
8:58 pm10 °FIce fog.No wind85%30.35 "Hg5 mi
7:58 pm12 °FIce fog.No wind85%30.34 "Hg5 mi
6:58 pm14 °FIce fog.No wind85%30.34 "Hg5 mi
5:58 pm19 °FClear.No wind79%30.33 "HgN/A
4:58 pm23 °FClear.No wind74%30.32 "HgN/A
Weather by CustomWeather, © 2017

See weather overviewHow to use our weather pages